TimeEDT,TemperatureF,Dew PointF,Humidity,Sea Level PressureIn,VisibilityMPH,Wind Direction,Wind SpeedMPH,Gust SpeedMPH,PrecipitationIn,Events,Conditions,WindDirDegrees,DateUTC
12:15 AM,77.0,77.0,100,29.78,10.0,South,3.5,-,N/A,,Mostly Cloudy,190,2013-06-30 04:15:00
12:35 AM,77.0,77.0,100,29.79,10.0,South,3.5,-,N/A,,Overcast,170,2013-06-30 04:35:00
12:55 AM,77.0,77.0,100,29.78,10.0,South,4.6,-,N/A,,Overcast,170,2013-06-30 04:55:00
1:15 AM,77.0,77.0,100,29.77,10.0,South,6.9,-,N/A,,Mostly Cloudy,190,2013-06-30 05:15:00
1:35 AM,77.0,77.0,100,29.77,10.0,SSW,5.8,-,N/A,,Scattered Clouds,200,2013-06-30 05:35:00
1:55 AM,77.0,77.0,100,29.77,10.0,SW,4.6,-,N/A,,Mostly Cloudy,220,2013-06-30 05:55:00
2:15 AM,75.2,75.2,100,29.76,10.0,SW,3.5,-,N/A,,Mostly Cloudy,230,2013-06-30 06:15:00
2:35 AM,75.2,75.2,100,29.76,10.0,SSW,3.5,-,N/A,,Scattered Clouds,210,2013-06-30 06:35:00
2:55 AM,75.2,75.2,100,29.76,10.0,SW,3.5,-,N/A,,Scattered Clouds,220,2013-06-30 06:55:00
3:15 AM,75.2,75.2,100,29.76,10.0,SSW,4.6,-,N/A,,Overcast,200,2013-06-30 07:15:00
3:35 AM,75.2,75.2,100,29.76,7.0,SW,6.9,-,N/A,Rain,Light Rain,220,2013-06-30 07:35:00
3:55 AM,73.4,73.4,100,29.75,10.0,SSW,3.5,-,N/A,,Mostly Cloudy,210,2013-06-30 07:55:00
4:15 AM,73.4,73.4,100,29.75,10.0,SW,3.5,-,N/A,,Scattered Clouds,230,2013-06-30 08:15:00
4:35 AM,73.4,73.4,100,29.75,10.0,Calm,Calm,-,N/A,,Scattered Clouds,0,2013-06-30 08:35:00
4:55 AM,73.4,73.4,100,29.75,10.0,South,3.5,-,N/A,,Scattered Clouds,180,2013-06-30 08:55:00
5:15 AM,73.4,73.4,100,29.76,10.0,Calm,Calm,-,N/A,,Mostly Cloudy,0,2013-06-30 09:15:00
5:35 AM,73.4,73.4,100,29.77,10.0,South,4.6,-,N/A,,Overcast,190,2013-06-30 09:35:00
5:55 AM,73.4,73.4,100,29.77,10.0,South,3.5,-,N/A,,Overcast,190,2013-06-30 09:55:00
6:15 AM,73.4,73.4,100,29.78,10.0,South,3.5,-,N/A,,Overcast,190,2013-06-30 10:15:00
6:35 AM,73.4,73.4,100,29.78,10.0,SSW,3.5,-,N/A,,Overcast,210,2013-06-30 10:35:00
6:55 AM,73.4,73.4,100,29.79,10.0,SSW,3.5,-,N/A,,Mostly Cloudy,200,2013-06-30 10:55:00
7:15 AM,73.4,73.4,100,29.80,10.0,SSW,3.5,-,N/A,,Mostly Cloudy,210,2013-06-30 11:15:00
7:35 AM,73.4,73.4,100,29.80,10.0,South,4.6,-,N/A,,Overcast,180,2013-06-30 11:35:00
7:55 AM,77.0,77.0,100,29.80,10.0,SSW,6.9,-,N/A,,Scattered Clouds,210,2013-06-30 11:55:00
8:15 AM,77.0,77.0,100,29.81,10.0,SW,5.8,-,N/A,,Mostly Cloudy,220,2013-06-30 12:15:00
8:35 AM,77.0,77.0,100,29.81,10.0,SW,5.8,-,N/A,,Overcast,220,2013-06-30 12:35:00
8:55 AM,77.0,77.0,100,29.81,10.0,SW,10.4,-,N/A,,Overcast,220,2013-06-30 12:55:00
9:15 AM,78.8,77.0,94,29.81,10.0,WSW,6.9,-,N/A,,Overcast,240,2013-06-30 13:15:00
9:35 AM,78.8,77.0,94,29.81,10.0,SW,8.1,-,N/A,,Overcast,220,2013-06-30 13:35:00
9:55 AM,80.6,77.0,89,29.82,10.0,SW,9.2,-,N/A,,Mostly Cloudy,220,2013-06-30 13:55:00
10:15 AM,80.6,77.0,89,29.82,10.0,SW,9.2,-,N/A,,Overcast,230,2013-06-30 14:15:00
10:35 AM,82.4,77.0,84,29.81,10.0,SW,10.4,-,N/A,,Mostly Cloudy,220,2013-06-30 14:35:00
10:55 AM,82.4,75.2,79,29.81,10.0,WSW,8.1,-,N/A,,Mostly Cloudy,240,2013-06-30 14:55:00
11:15 AM,82.4,73.4,74,29.80,10.0,SW,6.9,-,N/A,,Mostly Cloudy,230,2013-06-30 15:15:00
11:35 AM,84.2,73.4,70,29.80,10.0,WSW,6.9,-,N/A,,Scattered Clouds,240,2013-06-30 15:35:00
11:55 AM,84.2,73.4,70,29.80,10.0,SSW,4.6,-,N/A,,Mostly Cloudy,210,2013-06-30 15:55:00
12:15 PM,84.2,73.4,70,29.80,10.0,WSW,5.8,-,N/A,,Scattered Clouds,240,2013-06-30 16:15:00
12:35 PM,82.4,73.4,74,29.80,10.0,WSW,6.9,-,N/A,,Mostly Cloudy,240,2013-06-30 16:35:00
12:55 PM,82.4,73.4,74,29.81,10.0,South,8.1,-,N/A,,Overcast,190,2013-06-30 16:55:00
1:15 PM,82.4,77.0,84,29.80,10.0,SE,6.9,-,N/A,Thunderstorm,Scattered Clouds,140,2013-06-30 17:15:00
1:35 PM,80.6,77.0,89,29.80,10.0,SSE,6.9,-,N/A,Rain,Light Rain,160,2013-06-30 17:35:00
1:55 PM,78.8,78.8,100,29.80,10.0,SE,11.5,-,N/A,Rain,Rain,130,2013-06-30 17:55:00
2:15 PM,78.8,77.0,94,29.80,10.0,SSE,9.2,-,N/A,Rain,Light Rain,150,2013-06-30 18:15:00
2:35 PM,77.0,77.0,100,29.79,5.0,South,8.1,-,N/A,Rain-Thunderstorm,Rain,180,2013-06-30 18:35:00
2:55 PM,77.0,77.0,100,29.79,7.0,South,8.1,-,N/A,Rain-Thunderstorm,Heavy Thunderstorms and Rain,180,2013-06-30 18:55:00
3:15 PM,77.0,77.0,100,29.79,7.0,SSW,3.5,-,N/A,Rain-Thunderstorm,Light Thunderstorms and Rain,210,2013-06-30 19:15:00
3:35 PM,78.8,78.8,100,29.79,10.0,ESE,5.8,-,N/A,Thunderstorm,Unknown,120,2013-06-30 19:35:00
3:55 PM,78.8,78.8,100,29.79,10.0,SSE,6.9,-,N/A,Thunderstorm,Thunderstorm,150,2013-06-30 19:55:00
4:15 PM,73.4,71.6,94,29.86,5.0,West,9.2,21.9,N/A,Rain-Thunderstorm,Heavy Thunderstorms and Rain,270,2013-06-30 20:15:00
4:35 PM,69.8,69.8,100,29.83,1.2,WSW,8.1,-,N/A,Rain-Thunderstorm,Heavy Thunderstorms and Rain,250,2013-06-30 20:35:00
4:55 PM,69.8,69.8,100,29.84,0.8,SSE,5.8,-,N/A,Rain-Thunderstorm,Heavy Thunderstorms and Rain,160,2013-06-30 20:55:00
5:15 PM,69.8,69.8,100,29.83,2.5,SE,8.1,-,N/A,Rain-Thunderstorm,Heavy Thunderstorms and Rain,130,2013-06-30 21:15:00
5:35 PM,69.8,69.8,100,29.83,2.5,East,4.6,-,N/A,Rain-Thunderstorm,Heavy Thunderstorms and Rain,90,2013-06-30 21:35:00
5:55 PM,69.8,69.8,100,29.82,10.0,Calm,Calm,-,N/A,Rain,Rain,0,2013-06-30 21:55:00
6:15 PM,69.8,69.8,100,29.82,3.0,East,5.8,-,N/A,Rain,Light Rain,100,2013-06-30 22:15:00
6:35 PM,69.8,69.8,100,29.82,10.0,East,3.5,-,N/A,Thunderstorm,Mostly Cloudy,90,2013-06-30 22:35:00
6:55 PM,69.8,69.8,100,29.84,10.0,Calm,Calm,-,N/A,,Overcast,0,2013-06-30 22:55:00
7:15 PM,69.8,69.8,100,29.84,3.0,Calm,Calm,-,N/A,Rain-Thunderstorm,Rain,0,2013-06-30 23:15:00
7:35 PM,71.6,71.6,100,29.84,10.0,ESE,4.6,-,N/A,,Mostly Cloudy,110,2013-06-30 23:35:00
7:55 PM,69.8,69.8,100,29.83,10.0,ESE,6.9,-,N/A,,Scattered Clouds,120,2013-06-30 23:55:00
8:15 PM,69.8,69.8,100,29.84,10.0,SE,4.6,-,N/A,,Mostly Cloudy,130,2013-07-01 00:15:00
8:35 PM,69.8,69.8,100,29.84,10.0,ESE,4.6,-,N/A,,Mostly Cloudy,120,2013-07-01 00:35:00
8:55 PM,69.8,69.8,100,29.84,10.0,Calm,Calm,-,N/A,,Overcast,0,2013-07-01 00:55:00
9:15 PM,69.8,69.8,100,29.85,10.0,ESE,3.5,-,N/A,Rain,Light Rain,120,2013-07-01 01:15:00
9:35 PM,69.8,69.8,100,29.85,10.0,Calm,Calm,-,N/A,,Light Drizzle,0,2013-07-01 01:35:00
9:55 PM,69.8,69.8,100,29.85,10.0,Calm,Calm,-,N/A,,Overcast,0,2013-07-01 01:55:00
10:15 PM,69.8,69.8,100,29.85,10.0,Calm,Calm,-,N/A,,Overcast,0,2013-07-01 02:15:00
10:35 PM,69.8,69.8,100,29.86,10.0,Calm,Calm,-,N/A,,Mostly Cloudy,0,2013-07-01 02:35:00
10:55 PM,69.8,69.8,100,29.86,1.5,SE,4.6,-,N/A,,Overcast,130,2013-07-01 02:55:00
11:15 PM,69.8,69.8,100,29.86,0.8,ESE,4.6,-,N/A,,Overcast,120,2013-07-01 03:15:00
11:35 PM,69.8,69.8,100,29.86,2.0,ESE,3.5,-,N/A,,Overcast,120,2013-07-01 03:35:00
11:55 PM,69.8,69.8,100,29.87,1.2,Calm,Calm,-,N/A,,Overcast,0,2013-07-01 03:55:00